[ hide orbit diagram ]
For accurate long-term ephemerides, please instead use our Horizons system.This orbit viewer was implemented using two-body methods, and hence should not be used for determining accurate long-term trajectories (over several years or decades) or planetary encounter circumstances.
Orbital Elements at Epoch 2459000.5 (2020-May-31.0) TDB
Reference: JPL 9 (heliocentric ecliptic J2000)
Element | Value | Uncertainty (1-sigma) | Units |
e | .270115080025735 | 5.8178e-08 | |
a | 2.586072318305647 | 3.0144e-08 | au |
q | 1.887535187094179 | 1.3851e-07 | au |
i | 5.496822565693469 | 1.398e-05 | deg |
node | 159.7282686248448 | 6.6298e-05 | deg |
peri | 105.6990032369248 | 7.2733e-05 | deg |
M | 201.7391250368202 | 3.235e-05 | deg |
tp | 2459668.275508751646 (2022-Mar-29.77550875) | 0.00014457 | TDB |
period | 1519.005775789643 4.16 | 2.6559e-05 7.271e-08 | d yr |
n | .236997123867325 | 4.1438e-09 | deg/d |
Q | 3.284609449517115 | 3.8287e-08 | au |
|
| | Orbit Determination Parameters
Additional Information
|
[ show covariance matrix ]
Physical Parameter Table
Parameter |
Symbol |
Value |
Units |
Sigma |
Reference |
Notes |
absolute magnitude |
H |
17.3 |
|
n/a |
MPO455582 |
|
|
357665 (2005 JV109) Discovered 2005-May-07 by CSS at Catalina |
Reference: 20130327/Numbers.arc | Last Updated: 2013-03-29 |
|
[ hide close-approach data ]
Close-Approach Data ...sorted by Date/Time (TDB)
|
Date/Time (TDB) |
Time Uncertainty (days_HH:MM) |
Body |
Nominal Distance (au) |
Minimum Distance (au) |
Maximum Distance (au) |
V-relative (km/s) |
V-infinity (km/s) |
JD (TDB) |
Time Uncertainty (minutes) |
Semi-major axis (km) |
Semi-minor axis (km) |
range-LOV angle (deg) |
N-sigma |
BP |
Orbit Ref. |
Reference |
Modified |
1953-Apr-10 07:52 |
00:03 |
Jupiter |
1.85426389571385 |
1.85426265778507 |
1.85426513407092 |
1.05201648165171 |
0.439481877453541 |
2434477.827701102 |
3.02518850412417 |
8196.87298908122 |
540.308044049276 |
-19.0516531177625 |
1969509.86276755 |
T |
9 |
CATAB v2.0e-lin.ifort 2019-Jul-14 03:56:31 |
2019-Jul-14 03:56 |
1966-Mar-14 16:41 |
00:02 |
Jupiter |
1.9091498819143 |
1.90914813714069 |
1.90915162668791 |
0.833569971850704 |
n/a |
2439199.195334625 |
2.36415501623569 |
138.972037028437 |
86.7368855876603 |
-86.3974695073264 |
3287974.8680461 |
F |
9 |
CATAB v2.0e-lin.ifort 2019-Jul-14 03:56:31 |
2019-Jul-14 03:56 |
2036-Jun-08 12:03 |
< 00:01 |
Jupiter |
1.84925862517231 |
1.84925771689968 |
1.84925953344532 |
0.941203421677948 |
n/a |
2464853.002248903 |
0.99024707914277 |
154.312917630933 |
43.3830400845231 |
-84.9598156665788 |
6352447.26085755 |
F |
9 |
CATAB v2.0e-lin.ifort 2019-Jul-14 03:56:31 |
2019-Jul-14 03:56 |
2049-May-12 03:53 |
00:02 |
Jupiter |
1.92465768793025 |
1.92465679030829 |
1.92465858555323 |
0.905632950462572 |
n/a |
2469573.661611577 |
1.61768552900889 |
155.435856643778 |
39.5373053886594 |
-81.9757123251646 |
7213875.53347993 |
F |
9 |
CATAB v2.0e-lin.ifort 2019-Jul-14 03:56:31 |
2019-Jul-14 03:56 |
2119-Aug-08 12:58 |
00:05 |
Jupiter |
1.83977716629685 |
1.83977587877426 |
1.83977845382079 |
0.828555499811966 |
n/a |
2495228.039986525 |
4.87930186838219 |
210.986213124291 |
59.0683159963929 |
82.8644235051898 |
4625002.88697984 |
F |
9 |
CATAB v2.0e-lin.ifort 2019-Jul-14 03:56:31 |
2019-Jul-14 03:56 |
2132-Jul-12 16:26 |
00:06 |
Jupiter |
1.95526907227573 |
1.9552664030064 |
1.95527174152161 |
1.03176509126585 |
0.445128353303629 |
2499950.184653199 |
5.53731499244098 |
9740.08965612007 |
842.555126789476 |
-5.78880133537912 |
409123.279466102 |
T |
9 |
CATAB v2.0e-lin.ifort 2019-Jul-14 03:56:31 |
2019-Jul-14 03:56 |
|
|